Location: La Pernelle
(49.6188°N, 1.2999°W)
Time: 14:09:18
(UTC+00:00)

Cosmos 2333 - Pass Details

Date: 12 June 2021
Orbit: 832 x 864 km, 70.9° (Epoch: 29 July)

Event Time Altitude Azimuth Distance (km) Brightness Sun altitude
Exits shadow 23:34:37 16° 216° (SW) 2,080 5.8 -16.9°
Maximum altitude 23:39:14 75° 300° (WNW) 894 4.4 -16.9°
Drops below altitude 10° 23:44:59 10° 27° (NNE) 2,493 7.5 -17.0°
Sets 23:47:27 0° 29° (NNE) 3,427 8.3 -17.1°
